Location: Rounton
(54.4000°N, 1.3500°W)
Time: 13:34:08
(UTC+00:00)

Transit 2A Rocket - Pass Details

Date: 01 December 2021
Orbit: 584 x 918 km, 66.7° (Epoch: 21 January)

Event Time Altitude Azimuth Distance (km) Brightness Sun altitude
Rises 13:40:18 0° 303° (WNW) 3,533 8.3 10.4°
Reaches altitude 10° 13:43:12 10° 315° (NW) 2,611 7.6 10.2°
Maximum altitude 13:48:26 28° 14° (NNE) 1,643 6.3 9.9°
Drops below altitude 10° 13:53:39 10° 73° (ENE) 2,595 7.4 9.5°
Sets 13:56:30 0° 84° (E) 3,507 8.1 9.3°
